Location: Maddington
(51.2000°N, 1.9167°W)
Time: 14:18:08
(UTC+00:00)

NOSS 2-2 (E) - Pass Details

Date: 19 January 2021
Orbit: 462 x 1744 km, 63.3° (Epoch: 03 March)

Event Time Altitude Azimuth Distance (km) Brightness Sun altitude
Rises 20:53:07 0° 315° (NW) 3,002 7.8 -39.5°
Reaches altitude 10° 20:55:10 10° 319° (NW) 2,221 6.9 -39.8°
Enters shadow 20:55:49 14° 321° (NW) 1,978 6.6 -39.9°
